Minsk International Airport

Airport
ICAO code: 
UMMS
IATA Code: 
MSQ
Summary
ICAO Region: 
EUR
Territory: 
Location: 
Vykacheno, Smalyavichy Raion
Serving: 
Minsk
Elevation: 
669 ft
Coordinates: 
Aerial View: 
53° 53' 18.78" N, 28° 2' 9.24" E
Metar
Observation
UMMS 251230Z 21004G07MPS 180V260 CAVOK 22/05 Q1014 NOSIG
Station
Minsk
Date/Time
2022-05-25 12:30:00
Wind direction
210°
Lowest cloud amount
clouds and visibility OK
Temperature
22°C
Dew point
5°C
Humidity
33%
QNH
1014 hPa
Weather condition
n/a

Minsk National Airport (formerly known as Minsk-2) is the main international airport in Belarus, located 25nm to the east of the capital Minsk.

Climatology

Humid Continental climate (Köppen climate classification Dfb)

Runways

Designator Length Width Surface Rops
13/31 3641 60 CON Yes/Yes
Airport map: 
Aerial View: 

SKYbrary Partners:

Safety knowledge contributed by: